Location: Silent Lake
(44.9206°N, 78.0708°W)
Time: 14:42:00
(UTC-04:00)

Daily predictions for brighter satellites

Satellite Brightness Start Highest point End
(mag) Time Altitude Azimuth Time Altitude Azimuth Time Altitude Azimuth
Cosmos 2112 Rocket 4.3 18:42:55 10° SSW 18:48:13 76° WNW 18:53:30 10° NNE
Cosmos 1242 Rocket 2.9 18:46:14 10° SSW 18:49:51 71° WNW 18:53:31 10° N
IRS-1A Rocket 4.4 18:44:25 10° SSE 18:50:17 84° ENE 18:56:14 10° NNW
YAOGAN 1 2.6 18:46:12 10° SSE 18:50:29 66° ENE 18:54:47 10° N
Ariane Rocket 3.8 18:45:54 10° S 18:50:55 60° WSW 18:55:59 10° NNW
Meteor 2-14 Rocket 4.5 18:48:38 10° S 18:54:38 65° E 19:00:40 10° NNE
Cosmos 2237 Rocket 4.2 18:55:03 10° NNE 18:56:23 11° NE 18:57:43 10° NE
SPOT 3 Rocket 3.8 18:51:44 10° SE 18:56:44 50° ENE 19:01:46 10° N
GP-B 3.3 18:53:12 10° NNE 18:57:31 47° E 19:01:47 10° SSE
Cosmos 2056 Rocket 3.5 18:53:54 10° NNW 18:59:17 85° ENE 19:04:32 10° SSE
SL-14 R/B 3.7 18:56:31 10° NNW 19:00:20 65° W 19:04:09 10° S
H-2A R/B 4.4 18:58:15 10° ESE 19:00:41 16° ENE 19:03:08 10° NNE
Cosmos-2242 3.1 18:58:21 10° S 19:02:36 85° W 19:06:54 10° N
METEOR-M 4.1 18:58:52 10° SSE 19:04:09 66° ENE 19:09:28 10° N
Tiangong 1 3.6 19:04:03 10° WSW 19:05:26 13° SSW 19:06:49 10° S
USA 267 4.5 19:05:58 10° ENE 19:10:41 21° ESE 19:15:22 10° S
ALOS 2.6 19:06:19 10° SE 19:10:44 44° ENE 19:15:11 10° N
SKYMED 2 3.6 19:07:50 10° NNE 19:12:09 60° E 19:16:26 10° S
Cosmos 2151 3.1 19:08:39 10° N 19:12:52 53° ENE 19:17:01 10° SSE
MONITOR-E 4.0 19:10:25 10° SSE 19:13:29 73° ENE 19:16:35 10° N
CZ-2C R/B 4.2 19:10:05 10° N 19:14:36 64° WNW 19:19:01 10° SSW
Cosmos 1452 Rocket 3.7 19:11:56 10° NNW 19:17:05 51° ENE 19:22:11 10° SE
NOAA 12 4.2 19:11:57 10° SSE 19:17:08 58° ENE 19:22:22 10° N
Cosmos 1743 Rocket 3.5 19:13:21 10° N 19:17:45 78° E 19:22:09 10° SSE
SL-24 R/B - RUBIN 2 3.8 19:13:00 10° NNW 19:17:57 56° NE 19:22:22 10° SE
GRACE-2 4.4 19:15:37 10° SSE 19:17:58 32° E 19:20:20 10° NNE
COSMOS 2428 3.5 19:13:20 10° N 19:18:25 32° NE 19:23:13 11° ESE
GRACE-1 4.2 19:17:48 10° SSE 19:20:13 36° E 19:22:38 10° NNE
Cosmos 2333 Rocket 3.6 19:17:18 10° N 19:21:35 21° NE 19:24:25 15° E
Cosmos 2360 Rocket 2.2 19:16:40 10° NNW 19:22:20 68° ENE 19:27:57 10° SE
BREEZE-M DEB (TANK) 1.7 19:20:41 10° SW 19:22:56 51° SSE 19:23:54 24° E
Abrixas rocket 2.4 19:21:05 10° WSW 19:24:21 68° NNW 19:26:39 18° ENE
Cosmos 1315 Rocket 3.1 19:20:54 10° N 19:24:48 44° ENE 19:28:44 10° SSE
Cosmos 1626 2.1 19:21:09 10° N 19:24:55 85° W 19:28:39 10° S
Cosmos 1833 4.3 19:21:10 10° S 19:26:43 58° ESE 19:32:15 10° NNE
Cosmos 1842 Rocket 3.5 19:22:45 10° S 19:27:13 73° E 19:31:40 10° NNE
Cosmos 2322 Rocket 3.3 19:23:39 10° NW 19:28:59 46° WSW 19:34:19 10° S
Cosmos 2219 4.3 19:26:59 10° SSE 19:31:18 22° E 19:34:36 14° ENE
DELTA 2 R/B (1) 4.2 19:27:09 10° WSW 19:32:31 49° S 19:36:42 16° ESE
Cosmos 2221 3.0 19:30:28 10° SSE 19:34:26 38° E 19:38:29 10° NNE
FengYun 1-2 T 4.5 19:29:28 10° SE 19:34:41 46° ENE 19:39:54 10° N
Meteor 2-1 Rocket 4.2 19:30:17 10° S 19:36:00 71° E 19:41:53 10° NNE
Resurs 01 Rocket 3.1 19:36:12 18° ENE 19:36:12 18° ENE 19:39:06 10° NNE
Cosmos 1500 Rocket 3.6 19:35:25 10° N 19:39:47 81° W 19:44:06 10° S
ATLAS 5 CENTAUR R/B 4.5 19:38:22 10° NNW 19:40:05 11° N 19:41:52 10° N
Cosmos 2366 rocket 4.3 19:34:06 10° SSW 19:40:18 72° W 19:46:30 10° N
Aureole 2 Rocket 4.1 19:38:04 10° N 19:40:50 20° NE 19:40:50 20° NE
EO 1 Del DPAF 4.3 19:38:03 10° N 19:41:46 47° WNW 19:45:27 10° SW
Cosmos 2058 3.1 19:37:51 10° NNW 19:42:03 75° W 19:46:12 10° S
RESURS DK-1 2.3 19:38:03 10° NNW 19:42:13 88° ENE 19:46:21 10° SSE
Cosmos 921 Rocket 3.0 19:38:02 10° NNW 19:42:31 70° ENE 19:46:53 10° SSE
Cosmos 1461 4.5 19:40:52 10° WSW 19:44:34 33° NW 19:48:28 10° NNE
Cosmos 44 4.1 19:43:35 10° SSE 19:46:58 25° ESE 19:46:58 25° ESE
USA 234 4.1 19:43:40 18° ENE 19:47:49 37° NNE 19:53:42 10° NW
Lacrosse 5 rocket 3.4 19:46:17 10° WNW 19:49:46 22° NNW 19:52:59 11° NNE
Cosmos 2322 3.7 19:44:26 10° NNW 19:50:13 89° NE 19:55:56 10° SSE
SJ-6B 3.0 19:50:20 29° ESE 19:51:46 43° ENE 19:55:20 10° N
FENGYUN 3A 3.9 19:50:58 10° S 19:56:21 75° WSW 20:01:47 10° NNW
Atlas Centaur 2 4.0 19:55:09 10° SW 19:58:27 17° S 20:01:19 12° SSE
Iridium 4 Rocket 3.6 19:53:24 10° S 19:58:50 72° E 20:04:39 10° N
Thor Agena Rocket 3.4 19:54:21 10° NNE 19:59:28 69° ESE 20:04:30 10° S
Cosmos 1048 Rocket 4.1 19:54:36 10° S 19:59:29 46° ESE 20:04:22 10° NNE
COSMO-SKYMED 1 3.9 19:56:03 10° N 20:00:10 42° WNW 20:04:15 10° SW
FREGAT/IRIS 2.4 20:00:46 35° SSE 20:01:53 89° NE 20:04:53 10° NNW
Cosmos 44 Rocket 3.7 19:57:38 10° S 20:01:53 35° ESE 20:01:59 35° ESE
Cosmos 1420 Rocket 4.0 19:58:11 10° NNW 20:03:34 88° WSW 20:08:51 10° SSE
Gbstr 26 Del rocket 3.7 19:58:47 10° WNW 20:03:47 62° NNE 20:06:21 33° E
Envisat 3.6 20:09:17 35° ENE 20:09:23 35° ENE 20:13:58 10° N
Cosmos 2219 Rocket 2.4 20:06:52 10° NNW 20:12:20 49° ENE 20:13:48 39° ESE
Sich 1 3.1 20:09:10 10° N 20:13:23 50° ENE 20:13:23 50° ENE
Cosmos 1000 Rocket 4.5 20:10:26 10° N 20:16:43 87° W 20:22:55 10° S
Cosmos 1821 Rocket 3.8 20:11:26 10° S 20:17:33 77° E 20:23:49 10° N
Cosmos 1805 Rocket 3.4 20:13:40 10° N 20:18:04 85° E 20:20:41 24° S
Cosmos 1934 Rocket 3.9 20:18:49 10° S 20:25:06 67° E 20:31:26 10° NNE
SL-8 R/B 3.6 20:20:43 10° WSW 20:25:33 83° SSE 20:26:18 63° E
Cosmos 2333 4.1 20:20:02 10° NNW 20:25:47 89° WSW 20:28:45 30° SSE
Cosmos 2239 Rocket 4.4 20:19:51 10° S 20:25:59 88° E 20:32:11 10° N
Cosmos 1666 Rocket 3.5 20:22:16 10° N 20:26:18 64° NE 20:26:18 64° NE
Cosmos 158 Rocket 3.9 20:21:43 10° SSW 20:26:45 85° WNW 20:31:59 10° NNE
Cosmos 1726 4.3 20:28:28 10° SSW 20:37:28 - N 20:29:16 16° SSW
H-2A R/B 3.9 20:31:12 12° S 20:34:35 44° W 20:38:21 10° NNW
HJ-1C 4.2 20:35:00 50° WNW 20:35:00 50° WNW 20:38:02 10° NNW
Cosmos 1633 Rocket 3.5 20:31:30 10° N 20:34:50 49° NNE 20:34:50 49° NNE
Cosmos 1331 Rocket 4.4 20:32:11 10° NNW 20:36:36 47° NE 20:36:36 47° NE
BREEZE M DEB (TANK) 3.4 20:36:40 10° WNW 20:39:02 33° WNW 20:39:02 33° WNW
Cosmos 2237 Rocket 2.6 20:36:28 10° NNW 20:41:26 45° NE 20:41:26 45° NE
Cosmos 1269 Rocket 3.9 20:36:52 10° SSW 20:42:09 87° WNW 20:46:03 19° NNE
In-Cosmos 22 Rocket 4.1 20:37:21 10° N 20:43:05 75° E 20:43:56 63° SE
Cosmos 2123 Rocket 3.9 20:37:44 10° N 20:44:00 88° E 20:47:28 29° S
CZ-4C R/B 2.1 20:41:36 10° SSW 20:46:18 66° SSE 20:46:18 66° SSE
SL-16 R/B 3.7 20:45:57 10° N 20:49:03 23° NNE 20:49:03 23° NNE
Cosmos 1605 Rocket 3.8 20:45:36 10° S 20:51:40 73° E 20:57:45 10° NNE
Cosmos 2098 Rocket 4.2 20:47:45 10° SSW 20:51:58 49° WNW 20:57:19 10° N
USA 267 3.1 20:53:05 59° ENE 20:54:23 76° SE 21:00:55 10° SW
COSMOS 2428 3.7 20:57:27 10° NW 21:02:49 44° WSW 21:05:17 28° SSW
BREEZE-M DEB (TANK) 3.2 20:56:36 10° W 21:03:07 62° WNW 21:03:07 62° WNW
Cosmos 1980 4.0 20:59:25 10° NNW 21:04:03 58° N 21:04:03 58° N
Cosmos 2333 Rocket 2.2 21:00:46 10° NNW 21:06:26 78° WSW 21:06:26 78° WSW
Resurs 01 Rocket 3.0 21:13:47 35° NW 21:13:47 35° NW 21:16:35 10° NNW
Spot 2 Rocket 4.1 21:14:31 53° NW 21:14:31 53° NW 21:18:34 10° NNW
Cosmos 2219 3.7 21:09:18 10° SW 21:14:59 59° WNW 21:16:40 43° N
ATLAS 5 CENTAUR R/B 4.4 21:24:23 10° NNW 21:26:32 14° N 21:26:32 14° N
USA 234 3.4 21:31:01 68° NNW 21:31:01 68° NNW 21:36:50 10° NW
Lacrosse 5 rocket 4.2 21:27:40 10° NW 21:28:40 13° NNW 21:28:40 13° NNW
Cosmos 2219 Rocket 4.0 21:51:23 10° NW 21:55:33 26° W 21:55:33 26° W
Cosmos 2237 Rocket 4.4 22:21:00 10° NW 22:23:17 21° WNW 22:23:17 21° WNW
